Location: Unspecified
(0.0000°N, 0.0000°E)
Time: 02:33:07
(UTC+00:00)

STARLINK-1052 - Pass Details

Date: 19 January 2020
Orbit: 547 x 549 km, 53.0° (Epoch: 18 January)

Event Time Altitude Azimuth Distance (km) Brightness Sun altitude
Exits shadow 04:04:06 21° 166° (SSE) 1,272 5.8 -29.4°
Maximum altitude 04:05:54 29° 124° (SE) 1,024 5.5 -29.0°
Drops below altitude 10° 04:09:30 10° 63° (ENE) 1,812 6.7 -28.2°
Sets 04:11:56 0° 52° (NE) 2,701 7.5 -27.6°
